Newton, KS

9:07 PM CDT on October 14, 2019 (GMT -0500)
Newton City County

Weather History for KEWK - September, 2019

Change the Weather History Date:

Tuesday, September 17, 2019

  Actual Average Record
Temperature  
Mean Temperature 78 °F -  
Max Temperature 89 °F 77 °F 93 °F (2015)
Min Temperature 68 °F 56 °F 51 °F (1999)
Cooling Degree Days 14    
Growing Degree Days 28 (Base 50)    
Moisture  
Dew Point 66 °F    
Average Humidity 67    
Maximum Humidity 90    
Minimum Humidity 45    
Precipitation  
Precipitation 0.00 in - - ()
Sea Level Pressure  
Sea Level Pressure 29.95 in    
Wind  
Wind Speed 13 mph (SSE)    
Max Wind Speed 23 mph    
Max Gust Speed 30 mph    
Visibility 10 miles    
Events      
Averages and records for this station are not official NWS values.
T = Trace of Precipitation, MM = Missing Value Source: NWS Daily Summary

Daily Weather History Graph

Daily Weather History Graph

Search for Another Location

Airport or City:

Astronomy

Sep. 17, 2019 Rise Set
Actual Time 7:12 AM CDT 7:34 PM CDT
Civil Twilight 6:46 AM CDT 8:00 PM CDT
Nautical Twilight 6:15 AM CDT 8:31 PM CDT
Astronomical Twilight 5:43 AM CDT 9:02 PM CDT
Moon 9:40 PM CDT (9/17) 10:15 AM CDT (9/17)
Length of Visible Light 13h 14m
Length of Day
12h 21m
Waning Gibbous, 89% of the Moon is Illuminated
Sep 17
Waning Gibbous
Sep 21
Last Quarter
Sep 28
New
Oct 5
First Quarter
Oct 13
Full

Hourly Weather History & Observations

Time (CDT) Temp. Heat Index Dew Point Humidity Pressure Visibility Wind Dir Wind Speed Gust Speed Precip Events Conditions
12:56 AM 71.1 °F - 66.9 °F 87% 29.98 in 10.0 mi SSE 9.2 mph - N/A   Unknown
2:56 AM 70.0 °F - 66.0 °F 87% 29.98 in 10.0 mi SE 8.1 mph - N/A   Unknown
3:56 AM 71.1 °F - 66.0 °F 84% 29.97 in 10.0 mi SSE 8.1 mph - N/A   Unknown
5:56 AM 68.0 °F - 64.9 °F 90% 29.98 in 10.0 mi SSE 8.1 mph - N/A   Unknown
6:56 AM 69.1 °F - 66.0 °F 90% 29.99 in 10.0 mi SSE 9.2 mph - N/A   Unknown
7:56 AM 69.1 °F - 66.0 °F 90% 30.00 in 9.0 mi SE 10.4 mph - N/A   Unknown
8:56 AM 73.9 °F - 66.9 °F 79% 30.00 in 10.0 mi South 11.5 mph - N/A   Unknown
9:56 AM 81.0 °F 83.8 °F 68.0 °F 65% 29.99 in 10.0 mi South 17.3 mph - N/A   Unknown
10:56 AM 82.0 °F 84.1 °F 66.0 °F 58% 29.99 in 10.0 mi SSW 20.7 mph 27.6 mph N/A   Unknown
11:56 AM 87.1 °F 89.9 °F 66.9 °F 51% 29.97 in 10.0 mi SSW 23.0 mph 27.6 mph N/A   Unknown
12:56 PM 88.0 °F 89.6 °F 64.9 °F 46% 29.96 in 10.0 mi South 23.0 mph 29.9 mph N/A   Unknown
1:56 PM 88.0 °F 90.3 °F 66.0 °F 48% 29.95 in 10.0 mi South 17.3 mph 26.5 mph N/A   Unknown
2:56 PM 88.0 °F 89.6 °F 64.9 °F 46% 29.94 in 10.0 mi South 20.7 mph 25.3 mph N/A   Unknown
3:47 PM 89.6 °F 92.2 °F 66.2 °F 46% 29.97 in 10.0 mi South 19.6 mph 26.5 mph N/A   Scattered Clouds
3:56 PM 89.1 °F 91.3 °F 66.0 °F 46% 29.92 in 10.0 mi SSE 18.4 mph 24.2 mph N/A   Unknown
4:56 PM 88.0 °F 89.3 °F 64.0 °F 45% 29.91 in 10.0 mi South 17.3 mph - N/A   Unknown
5:56 PM 86.0 °F 88.2 °F 66.0 °F 51% 29.89 in 10.0 mi South 17.3 mph 25.3 mph N/A   Unknown
6:56 PM 84.0 °F 86.5 °F 66.9 °F 56% 29.89 in 10.0 mi SSE 11.5 mph - N/A   Unknown
7:56 PM 80.1 °F 82.3 °F 66.9 °F 64% 29.88 in 10.0 mi SSE 12.7 mph - N/A   Unknown
8:56 PM 77.0 °F - 66.9 °F 71% 29.91 in 10.0 mi SSE 10.4 mph - N/A   Unknown
9:56 PM 75.9 °F - 66.9 °F 74% 29.91 in 10.0 mi SSE 11.5 mph - N/A   Unknown
10:56 PM 73.9 °F - 66.9 °F 79% 29.91 in 10.0 mi SSE 8.1 mph - N/A   Unknown
11:48 PM 71.6 °F - 66.2 °F 83% 29.96 in 10.0 mi SE 9.2 mph - N/A   Scattered Clouds
11:56 PM 72.0 °F - 66.9 °F 84% 29.91 in 10.0 mi SSE 10.4 mph - N/A   Scattered Clouds